| time (UTC) | temp F | wind direction | speed MPH | gust MPH | rain 1hr in | rain 24hr in | rain mn in | humidity % | barometer mb |
| 20260902104150 | 60 | 249 | 0.0 | 0.0 | 0.00 | 0.00 | 0.00 | 95 | 1015.0 |
| 20260902103643 | 60 | 249 | 0.0 | 0.0 | 0.00 | 0.00 | 0.00 | 95 | 1015.0 |
| 20260902103138 | 60 | 249 | 0.0 | 0.0 | 0.00 | 0.00 | 0.00 | 95 | 1015.1 |
| 20260902102854 | 60 | 249 | 0.0 | 0.0 | 0.00 | 0.00 | 0.00 | 95 | 1015.2 |
| 20260902102132 | 60 | 249 | 0.0 | 0.0 | 0.00 | 0.00 | 0.00 | 95 | 1015.3 |
| 20260902101620 | 60 | 249 | 0.0 | 0.0 | 0.00 | 0.00 | 0.00 | 95 | 1015.4 |
| 20260902101113 | 60 | 249 | 0.0 | 0.0 | 0.00 | 0.00 | 0.00 | 95 | 1015.4 |
| 20260902100607 | 60 | 249 | 0.0 | 0.0 | 0.00 | 0.00 | 0.00 | 95 | 1015.4 |
| 20260902100101 | 60 | 249 | 0.0 | 0.0 | 0.00 | 0.00 | 0.00 | 94 | 1015.4 |
| 20260902095556 | 60 | 249 | 0.0 | 0.0 | 0.00 | 0.00 | 0.00 | 94 | 1015.4 |
| 20260902095049 | 60 | 249 | 0.0 | 0.0 | 0.00 | 0.00 | 0.00 | 94 | 1015.4 |
| 20260902094544 | 60 | 249 | 0.0 | 0.0 | 0.00 | 0.00 | 0.00 | 94 | 1015.5 |
| 20260902094037 | 60 | 249 | 0.0 | 0.0 | 0.00 | 0.00 | 0.00 | 94 | 1015.5 |
| 20260902093532 | 60 | 249 | 0.0 | 0.0 | 0.00 | 0.00 | 0.00 | 95 | 1015.5 |
| 20260902093509 | 60 | 249 | 0.0 | 0.0 | 0.00 | 0.00 | 0.00 | 95 | 1015.6 |
| 20260902092519 | 60 | 249 | 0.0 | 0.0 | 0.00 | 0.00 | 0.00 | 94 | 1015.8 |
| 20260902092013 | 60 | 249 | 0.0 | 0.0 | 0.00 | 0.00 | 0.00 | 94 | 1015.6 |
| 20260902091508 | 60 | 249 | 0.0 | 0.0 | 0.00 | 0.00 | 0.00 | 94 | 1015.6 |
| 20260902091308 | 60 | 249 | 0.0 | 0.0 | 0.00 | 0.00 | 0.00 | 94 | 1015.6 |
| 20260902091223 | 61 | 249 | 0.0 | 0.0 | 0.00 | 0.00 | 0.00 | 94 | 1015.8 |
| 20260902090200 | 61 | 204 | 0.0 | 0.0 | 0.00 | 0.00 | 0.00 | 94 | 1015.6 |
| 20260902090045 | 61 | 240 | 0.0 | 0.0 | 0.00 | 0.00 | 0.00 | 94 | 1015.9 |
| 20260902084937 | 61 | 223 | 0.0 | 0.0 | 0.00 | 0.00 | 0.00 | 94 | 1015.9 |
| 20260902084431 | 61 | 232 | 0.0 | 0.0 | 0.00 | 0.00 | 0.00 | 94 | 1015.8 |
| 20260902083925 | 61 | 219 | 0.0 | 0.0 | 0.00 | 0.00 | 0.00 | 94 | 1015.6 |
| 20260902083644 | 60 | 223 | 0.0 | 0.0 | 0.00 | 0.00 | 0.00 | 94 | 1015.6 |
| 20260902083137 | 61 | 202 | 0.0 | 0.0 | 0.00 | 0.00 | 0.00 | 93 | 1015.5 |
| 20260902082641 | 61 | 193 | 0.0 | 0.0 | 0.00 | 0.00 | 0.00 | 93 | 1015.5 |
| 20260902081901 | 61 | 172 | 0.0 | 0.0 | 0.00 | 0.00 | 0.00 | 94 | 1015.4 |
| 20260902081617 | 61 | 191 | 0.0 | 0.0 | 0.00 | 0.00 | 0.00 | 93 | 1015.4 |
| 20260902080850 | 61 | 206 | 0.0 | 0.0 | 0.00 | 0.00 | 0.00 | 93 | 1015.4 |
| 20260902080606 | 61 | 225 | 0.0 | 0.0 | 0.00 | 0.00 | 0.00 | 93 | 1015.4 |
| 20260902075837 | 61 | 225 | 0.0 | 0.0 | 0.00 | 0.00 | 0.00 | 93 | 1015.4 |
| 20260902075331 | 61 | 211 | 0.0 | 0.0 | 0.00 | 0.00 | 0.00 | 92 | 1015.4 |
| 20260902074825 | 61 | 211 | 0.0 | 0.0 | 0.00 | 0.00 | 0.00 | 92 | 1015.4 |
| 20260902074319 | 61 | 211 | 0.0 | 0.0 | 0.00 | 0.00 | 0.00 | 92 | 1015.4 |
| 20260902073814 | 61 | 211 | 0.0 | 0.0 | 0.00 | 0.00 | 0.00 | 92 | 1015.3 |
| 20260902073308 | 61 | 211 | 0.0 | 0.0 | 0.00 | 0.00 | 0.00 | 92 | 1015.3 |
| 20260902072801 | 61 | 203 | 0.0 | 0.0 | 0.00 | 0.00 | 0.00 | 92 | 1015.3 |
| 20260902072520 | 62 | 196 | 0.0 | 0.0 | 0.00 | 0.00 | 0.00 | 92 | 1015.3 |
| 20260902071749 | 62 | 196 | 0.0 | 0.0 | 0.00 | 0.00 | 0.00 | 92 | 1015.2 |
| 20260902071243 | 62 | 196 | 0.0 | 0.0 | 0.00 | 0.00 | 0.00 | 92 | 1015.1 |
| 20260902070737 | 62 | 196 | 0.0 | 0.0 | 0.00 | 0.00 | 0.00 | 92 | 1015.2 |
| 20260902070231 | 62 | 196 | 0.0 | 0.0 | 0.00 | 0.00 | 0.00 | 92 | 1015.2 |
| 20260902065724 | 62 | 196 | 0.0 | 0.0 | 0.00 | 0.00 | 0.00 | 92 | 1015.0 |
| 20260902065218 | 62 | 196 | 0.0 | 0.0 | 0.00 | 0.00 | 0.00 | 92 | 1015.1 |
| 20260902064712 | 62 | 196 | 0.0 | 0.0 | 0.00 | 0.00 | 0.00 | 92 | 1015.1 |
| 20260902064430 | 62 | 196 | 0.0 | 0.0 | 0.00 | 0.00 | 0.00 | 92 | 1015.0 |
| 20260902063702 | 62 | 227 | 0.0 | 0.0 | 0.00 | 0.00 | 0.00 | 91 | 1015.0 |
| 20260902063656 | 62 | 227 | 0.0 | 0.0 | 0.00 | 0.00 | 0.00 | 90 | 1015.0 |
| 20260902062644 | 62 | 227 | 0.0 | 0.0 | 0.00 | 0.00 | 0.00 | 90 | 1015.0 |
| 20260902062409 | 62 | 227 | 0.0 | 0.0 | 0.00 | 0.00 | 0.00 | 90 | 1015.1 |
| 20260902061632 | 62 | 227 | 0.0 | 0.0 | 0.00 | 0.00 | 0.00 | 90 | 1015.1 |
| 20260902061126 | 62 | 227 | 0.0 | 0.0 | 0.00 | 0.00 | 0.00 | 90 | 1015.1 |
| 20260902060623 | 62 | 227 | 0.0 | 0.0 | 0.00 | 0.00 | 0.00 | 89 | 1015.0 |
| 20260902060114 | 63 | 227 | 0.0 | 0.0 | 0.00 | 0.00 | 0.00 | 90 | 1014.9 |
| 20260902055608 | 63 | 227 | 0.0 | 0.0 | 0.00 | 0.00 | 0.00 | 90 | 1015.0 |
| 20260902055102 | 63 | 227 | 0.0 | 0.0 | 0.00 | 0.00 | 0.00 | 90 | 1015.0 |
| 20260902054556 | 63 | 227 | 0.0 | 0.0 | 0.00 | 0.00 | 0.00 | 89 | 1015.0 |
| 20260902054050 | 63 | 227 | 0.0 | 0.0 | 0.00 | 0.00 | 0.00 | 87 | 1015.0 |
| 20260902053545 | 63 | 229 | 0.0 | 0.0 | 0.00 | 0.00 | 0.00 | 87 | 1015.0 |
| 20260902053038 | 63 | 229 | 0.0 | 0.0 | 0.00 | 0.00 | 0.00 | 87 | 1015.0 |
| 20260902052532 | 63 | 229 | 0.0 | 0.0 | 0.00 | 0.00 | 0.00 | 86 | 1015.0 |
| 20260902052251 | 63 | 229 | 0.0 | 0.0 | 0.00 | 0.00 | 0.00 | 85 | 1015.0 |
| 20260902051520 | 63 | 229 | 0.0 | 0.0 | 0.00 | 0.00 | 0.00 | 84 | 1015.1 |
| 20260902051014 | 64 | 229 | 0.0 | 0.0 | 0.00 | 0.00 | 0.00 | 84 | 1015.1 |
| 20260902050508 | 64 | 229 | 0.0 | 0.0 | 0.00 | 0.00 | 0.00 | 84 | 1015.1 |
| 20260902050004 | 64 | 229 | 0.0 | 0.0 | 0.00 | 0.00 | 0.00 | 84 | 1015.1 |
| 20260902045456 | 64 | 229 | 0.0 | 0.0 | 0.00 | 0.00 | 0.00 | 82 | 1015.0 |
| 20260902044949 | 64 | 242 | 0.0 | 0.0 | 0.00 | 0.00 | 0.00 | 79 | 1015.0 |
| 20260902044444 | 64 | 165 | 0.0 | 0.0 | 0.00 | 0.00 | 0.00 | 80 | 1014.9 |
| 20260902043939 | 65 | 176 | 0.0 | 0.0 | 0.00 | 0.00 | 0.00 | 79 | 1014.8 |
| 20260902043652 | 65 | 185 | 0.0 | 0.0 | 0.00 | 0.00 | 0.00 | 77 | 1014.8 |
| 20260902042926 | 65 | 204 | 0.0 | 0.0 | 0.00 | 0.00 | 0.00 | 76 | 1014.6 |
| 20260902042652 | 65 | 159 | 0.0 | 0.0 | 0.00 | 0.00 | 0.00 | 73 | 1014.5 |
| 20260902041914 | 65 | 177 | 0.0 | 0.0 | 0.00 | 0.00 | 0.00 | 71 | 1014.5 |
| 20260902041408 | 65 | 176 | 0.0 | 0.0 | 0.00 | 0.00 | 0.00 | 71 | 1014.5 |
| 20260902040902 | 65 | 218 | 0.0 | 0.0 | 0.00 | 0.00 | 0.00 | 72 | 1014.5 |
| 20260902040356 | 66 | 149 | 0.0 | 0.0 | 0.00 | 0.00 | 0.00 | 72 | 1014.4 |
| 20260902035851 | 66 | 149 | 0.0 | 0.0 | 0.00 | 0.00 | 0.00 | 72 | 1014.1 |
| 20260902035606 | 66 | 149 | 0.0 | 0.0 | 0.00 | 0.00 | 0.00 | 72 | 1014.0 |
| 20260902035108 | 66 | 164 | 0.0 | 0.0 | 0.00 | 0.00 | 0.00 | 72 | 1014.0 |
| 20260902034332 | 66 | 175 | 0.0 | 0.0 | 0.00 | 0.00 | 0.00 | 73 | 1013.9 |
| 20260902033826 | 66 | 175 | 0.0 | 0.0 | 0.00 | 0.00 | 0.00 | 73 | 1013.8 |
| 20260902033321 | 66 | 175 | 0.0 | 0.0 | 0.00 | 0.00 | 0.00 | 74 | 1013.8 |
| 20260902032814 | 66 | 175 | 0.0 | 0.0 | 0.00 | 0.00 | 0.00 | 73 | 1013.8 |
| 20260902032308 | 67 | 177 | 0.0 | 0.0 | 0.00 | 0.00 | 0.00 | 71 | 1013.8 |
| 20260902031803 | 67 | 217 | 0.0 | 0.0 | 0.00 | 0.00 | 0.00 | 71 | 1013.7 |
| 20260902031256 | 67 | 217 | 0.0 | 0.0 | 0.00 | 0.00 | 0.00 | 71 | 1013.7 |
| 20260902030750 | 67 | 217 | 0.0 | 0.0 | 0.00 | 0.00 | 0.00 | 70 | 1013.6 |
| 20260902030244 | 68 | 217 | 0.0 | 0.0 | 0.00 | 0.00 | 0.00 | 70 | 1013.8 |
| 20260902025739 | 68 | 187 | 0.0 | 0.0 | 0.00 | 0.00 | 0.00 | 69 | 1013.7 |
| 20260902025232 | 68 | 201 | 0.0 | 0.0 | 0.00 | 0.00 | 0.00 | 69 | 1013.6 |
| 20260902024726 | 69 | 167 | 0.0 | 0.0 | 0.00 | 0.00 | 0.00 | 69 | 1013.6 |
| 20260902024220 | 69 | 189 | 0.0 | 0.0 | 0.00 | 0.00 | 0.00 | 68 | 1013.4 |
| 20260902023715 | 70 | 142 | 0.0 | 0.0 | 0.00 | 0.00 | 0.00 | 67 | 1013.6 |
| 20260902023437 | 70 | 192 | 0.0 | 0.0 | 0.00 | 0.00 | 0.00 | 67 | 1013.4 |
| 20260902022922 | 71 | 178 | 0.0 | 0.0 | 0.00 | 0.00 | 0.00 | 65 | 1013.3 |
| 20260902022156 | 71 | 233 | 0.0 | 0.0 | 0.00 | 0.00 | 0.00 | 64 | 1013.4 |
| 20260902021650 | 72 | 225 | 0.0 | 0.0 | 0.00 | 0.00 | 0.00 | 62 | 1013.3 |
| 20260902021414 | 73 | 205 | 0.0 | 0.0 | 0.00 | 0.00 | 0.00 | 59 | 1013.6 |
| 20260902020638 | 73 | 185 | 0.0 | 0.0 | 0.00 | 0.00 | 0.00 | 56 | 1013.3 |
| 20260902020133 | 74 | 218 | 0.0 | 0.0 | 0.00 | 0.00 | 0.00 | 53 | 1013.4 |
| 20260902015626 | 74 | 183 | 0.0 | 0.0 | 0.00 | 0.00 | 0.00 | 51 | 1013.4 |
| 20260902015121 | 74 | 182 | 0.0 | 0.0 | 0.00 | 0.00 | 0.00 | 48 | 1013.4 |
| 20260902014615 | 75 | 167 | 0.0 | 0.0 | 0.00 | 0.00 | 0.00 | 49 | 1013.3 |
| 20260902014109 | 76 | 164 | 0.0 | 0.0 | 0.00 | 0.00 | 0.00 | 45 | 1013.6 |
| 20260902013602 | 77 | 211 | 0.0 | 5.0 | 0.00 | 0.00 | 0.00 | 41 | 1013.3 |
| 20260902013318 | 77 | 225 | 0.0 | 5.0 | 0.00 | 0.00 | 0.00 | 43 | 1013.3 |
| 20260902012551 | 77 | 212 | 0.0 | 5.0 | 0.00 | 0.00 | 0.00 | 42 | 1013.3 |
| 20260902012044 | 78 | 223 | 0.0 | 4.0 | 0.00 | 0.00 | 0.00 | 42 | 1013.3 |
| 20260902011538 | 78 | 230 | 0.0 | 0.0 | 0.00 | 0.00 | 0.00 | 44 | 1013.3 |
| 20260902011300 | 78 | 190 | 0.0 | 0.0 | 0.00 | 0.00 | 0.00 | 46 | 1013.3 |
| 20260902010758 | 78 | 274 | 0.0 | 2.0 | 0.00 | 0.00 | 0.00 | 47 | 1013.3 |
| 20260902010021 | 79 | 107 | 0.0 | 2.0 | 0.00 | 0.00 | 0.00 | 46 | 1013.3 |
| 20260902005732 | 79 | 285 | 0.0 | 2.0 | 0.00 | 0.00 | 0.00 | 45 | 1013.2 |
| 20260902005008 | 79 | 264 | 0.0 | 2.0 | 0.00 | 0.00 | 0.00 | 45 | 1013.2 |
| 20260902004503 | 79 | 329 | 0.0 | 0.0 | 0.00 | 0.00 | 0.00 | 47 | 1013.4 |
| 20260902003956 | 79 | 242 | 0.0 | 2.0 | 0.00 | 0.00 | 0.00 | 47 | 1013.4 |
| 20260902003450 | 79 | 259 | 0.0 | 2.0 | 0.00 | 0.00 | 0.00 | 46 | 1013.4 |
| 20260902002944 | 79 | 275 | 1.0 | 8.0 | 0.00 | 0.00 | 0.00 | 46 | 1013.3 |
| 20260902002444 | 79 | 263 | 1.0 | 8.0 | 0.00 | 0.00 | 0.00 | 46 | 1013.4 |
| 20260902002200 | 79 | 240 | 1.0 | 8.0 | 0.00 | 0.00 | 0.00 | 45 | 1013.4 |
| 20260902001441 | 79 | 220 | 1.0 | 9.0 | 0.00 | 0.00 | 0.00 | 46 | 1013.6 |
| 20260902000939 | 80 | 259 | 1.0 | 9.0 | 0.00 | 0.00 | 0.00 | 45 | 1013.4 |
| 20260902000436 | 80 | 221 | 2.0 | 9.0 | 0.00 | 0.00 | 0.00 | 42 | 1013.4 |
| 20260901235935 | 80 | 260 | 1.0 | 9.0 | 0.00 | 0.00 | 0.00 | 43 | 1013.7 |
| 20260901235431 | 81 | 184 | 0.0 | 6.0 | 0.00 | 0.00 | 0.00 | 43 | 1013.6 |
| 20260901234931 | 82 | 254 | 0.0 | 7.0 | 0.00 | 0.00 | 0.00 | 40 | 1013.8 |
| 20260901234433 | 81 | 221 | 0.0 | 7.0 | 0.00 | 0.00 | 0.00 | 38 | 1013.7 |
| 20260901234148 | 81 | 186 | 0.0 | 7.0 | 0.00 | 0.00 | 0.00 | 39 | 1013.7 |
| 20260901233431 | 82 | 186 | 1.0 | 7.0 | 0.00 | 0.00 | 0.00 | 38 | 1013.8 |
| 20260901232930 | 82 | 189 | 0.0 | 9.0 | 0.00 | 0.00 | 0.00 | 37 | 1013.8 |
| 20260901232427 | 83 | 181 | 1.0 | 9.0 | 0.00 | 0.00 | 0.00 | 36 | 1013.8 |
| 20260901232416 | 83 | 200 | 1.0 | 9.0 | 0.00 | 0.00 | 0.00 | 29 | 1013.8 |
| 20260901231428 | 83 | 209 | 1.0 | 9.0 | 0.00 | 0.00 | 0.00 | 32 | 1013.6 |
| 20260901231148 | 83 | 236 | 1.0 | 9.0 | 0.00 | 0.00 | 0.00 | 32 | 1013.7 |
| 20260901230425 | 83 | 219 | 1.0 | 9.0 | 0.00 | 0.00 | 0.00 | 31 | 1013.6 |
| 20260901225923 | 83 | 192 | 2.0 | 10.0 | 0.00 | 0.00 | 0.00 | 32 | 1013.7 |
| 20260901225917 | 83 | 211 | 2.0 | 10.0 | 0.00 | 0.00 | 0.00 | 34 | 1013.7 |
| 20260901224927 | 83 | 227 | 2.0 | 10.0 | 0.00 | 0.00 | 0.00 | 33 | 1013.8 |
| 20260901224422 | 83 | 263 | 2.0 | 9.0 | 0.00 | 0.00 | 0.00 | 33 | 1013.8 |
| 20260901223916 | 83 | 248 | 2.0 | 10.0 | 0.00 | 0.00 | 0.00 | 32 | 1013.9 |
| 20260901223409 | 83 | 242 | 2.0 | 10.0 | 0.00 | 0.00 | 0.00 | 32 | 1013.9 |
| 20260901222904 | 82 | 189 | 5.0 | 12.0 | 0.00 | 0.00 | 0.00 | 35 | 1013.9 |
| 20260901222357 | 82 | 232 | 6.0 | 11.0 | 0.00 | 0.00 | 0.00 | 35 | 1013.9 |
| 20260901222109 | 83 | 234 | 4.0 | 12.0 | 0.00 | 0.00 | 0.00 | 35 | 1013.9 |
| 20260901221345 | 83 | 242 | 5.0 | 13.0 | 0.00 | 0.00 | 0.00 | 34 | 1014.0 |
| 20260901221058 | 83 | 230 | 6.0 | 13.0 | 0.00 | 0.00 | 0.00 | 38 | 1014.0 |
| 20260901220333 | 83 | 224 | 5.0 | 12.0 | 0.00 | 0.00 | 0.00 | 35 | 1014.1 |
| 20260901215827 | 82 | 191 | 6.0 | 13.0 | 0.00 | 0.00 | 0.00 | 36 | 1014.1 |
| 20260901215322 | 83 | 260 | 6.0 | 13.0 | 0.00 | 0.00 | 0.00 | 39 | 1014.1 |
| 20260901214816 | 83 | 203 | 5.0 | 12.0 | 0.00 | 0.00 | 0.00 | 38 | 1014.1 |
| 20260901214802 | 83 | 240 | 5.0 | 12.0 | 0.00 | 0.00 | 0.00 | 38 | 1014.1 |
| 20260901213804 | 83 | 217 | 5.0 | 12.0 | 0.00 | 0.00 | 0.00 | 39 | 1014.1 |
| 20260901213257 | 84 | 239 | 4.0 | 12.0 | 0.00 | 0.00 | 0.00 | 38 | 1014.1 |
| 20260901212751 | 84 | 240 | 4.0 | 11.0 | 0.00 | 0.00 | 0.00 | 38 | 1014.3 |
| 20260901212245 | 85 | 249 | 3.0 | 11.0 | 0.00 | 0.00 | 0.00 | 37 | 1014.2 |
| 20260901211739 | 85 | 255 | 2.0 | 11.0 | 0.00 | 0.00 | 0.00 | 38 | 1014.3 |
| 20260901211233 | 84 | 234 | 2.0 | 11.0 | 0.00 | 0.00 | 0.00 | 38 | 1014.3 |
| 20260901210728 | 84 | 214 | 3.0 | 11.0 | 0.00 | 0.00 | 0.00 | 39 | 1014.3 |
| 20260901210221 | 84 | 211 | 3.0 | 11.0 | 0.00 | 0.00 | 0.00 | 39 | 1014.4 |
| 20260901205715 | 85 | 250 | 3.0 | 10.0 | 0.00 | 0.00 | 0.00 | 39 | 1014.4 |
| 20260901205209 | 84 | 242 | 1.0 | 10.0 | 0.00 | 0.00 | 0.00 | 41 | 1014.4 |
| 20260901204704 | 84 | 213 | 2.0 | 9.0 | 0.00 | 0.00 | 0.00 | 41 | 1014.4 |
| 20260901204651 | 84 | 236 | 2.0 | 9.0 | 0.00 | 0.00 | 0.00 | 40 | 1014.5 |
| 20260901203651 | 84 | 182 | 2.0 | 8.0 | 0.00 | 0.00 | 0.00 | 40 | 1014.4 |
| 20260901203145 | 84 | 244 | 2.0 | 8.0 | 0.00 | 0.00 | 0.00 | 42 | 1014.5 |
| 20260901202639 | 84 | 211 | 2.0 | 8.0 | 0.00 | 0.00 | 0.00 | 42 | 1014.5 |
| 20260901202358 | 84 | 252 | 2.0 | 9.0 | 0.00 | 0.00 | 0.00 | 42 | 1014.5 |
| 20260901201628 | 85 | 231 | 2.0 | 9.0 | 0.00 | 0.00 | 0.00 | 42 | 1014.6 |
| 20260901201122 | 85 | 280 | 1.0 | 9.0 | 0.00 | 0.00 | 0.00 | 42 | 1014.5 |
| 20260901200615 | 85 | 189 | 2.0 | 9.0 | 0.00 | 0.00 | 0.00 | 42 | 1014.6 |
| 20260901200556 | 85 | 246 | 1.0 | 12.0 | 0.00 | 0.00 | 0.00 | 40 | 1014.7 |
| 20260901195604 | 85 | 190 | 1.0 | 12.0 | 0.00 | 0.00 | 0.00 | 40 | 1014.7 |
| 20260901195058 | 85 | 242 | 2.0 | 13.0 | 0.00 | 0.00 | 0.00 | 40 | 1014.7 |
| 20260901194551 | 85 | 248 | 2.0 | 13.0 | 0.00 | 0.00 | 0.00 | 40 | 1014.7 |
| 20260901194046 | 85 | 262 | 1.0 | 9.0 | 0.00 | 0.00 | 0.00 | 39 | 1014.8 |
| 20260901193804 | 85 | 234 | 0.0 | 5.0 | 0.00 | 0.00 | 0.00 | 39 | 1014.9 |
| 20260901193033 | 84 | 206 | 0.0 | 9.0 | 0.00 | 0.00 | 0.00 | 40 | 1014.9 |
| 20260901192527 | 84 | 198 | 0.0 | 9.0 | 0.00 | 0.00 | 0.00 | 41 | 1014.9 |
| 20260901192021 | 84 | 247 | 1.0 | 9.0 | 0.00 | 0.00 | 0.00 | 42 | 1015.0 |
| 20260901191515 | 83 | 243 | 1.0 | 9.0 | 0.00 | 0.00 | 0.00 | 44 | 1014.9 |
| 20260901191011 | 82 | 240 | 1.0 | 10.0 | 0.00 | 0.00 | 0.00 | 45 | 1015.0 |
| 20260901190503 | 82 | 263 | 1.0 | 10.0 | 0.00 | 0.00 | 0.00 | 46 | 1015.1 |
| 20260901185959 | 82 | 260 | 2.0 | 10.0 | 0.00 | 0.00 | 0.00 | 45 | 1015.1 |
| 20260901185451 | 82 | 270 | 2.0 | 10.0 | 0.00 | 0.00 | 0.00 | 46 | 1015.1 |
| 20260901185428 | 82 | 252 | 2.0 | 9.0 | 0.00 | 0.00 | 0.00 | 48 | 1015.1 |
| 20260901184439 | 81 | 238 | 1.0 | 8.0 | 0.00 | 0.00 | 0.00 | 50 | 1015.0 |
| 20260901184151 | 81 | 128 | 2.0 | 9.0 | 0.00 | 0.00 | 0.00 | 49 | 1015.2 |
| 20260901183428 | 81 | 226 | 2.0 | 9.0 | 0.00 | 0.00 | 0.00 | 50 | 1015.3 |
| 20260901182922 | 82 | 228 | 1.0 | 6.0 | 0.00 | 0.00 | 0.00 | 51 | 1015.2 |
| 20260901182416 | 81 | 248 | 0.0 | 0.0 | 0.00 | 0.00 | 0.00 | 51 | 1015.3 |
| 20260901181910 | 81 | 185 | 0.0 | 0.0 | 0.00 | 0.00 | 0.00 | 52 | 1015.1 |
| 20260901181404 | 80 | 273 | 0.0 | 4.0 | 0.00 | 0.00 | 0.00 | 52 | 1015.2 |
| 20260901180857 | 80 | 303 | 0.0 | 4.0 | 0.00 | 0.00 | 0.00 | 55 | 1015.4 |
| 20260901180351 | 80 | 335 | 0.0 | 2.0 | 0.00 | 0.00 | 0.00 | 56 | 1015.3 |
| 20260901180106 | 80 | 165 | 0.0 | 2.0 | 0.00 | 0.00 | 0.00 | 57 | 1015.3 |
| 20260901175339 | 79 | 326 | 0.0 | 2.0 | 0.00 | 0.00 | 0.00 | 59 | 1015.2 |
| 20260901174833 | 79 | 63 | 0.0 | 2.0 | 0.00 | 0.00 | 0.00 | 61 | 1015.2 |
| 20260901174329 | 78 | 298 | 0.0 | 2.0 | 0.00 | 0.00 | 0.00 | 60 | 1015.2 |
| 20260901173822 | 78 | 26 | 0.0 | 0.0 | 0.00 | 0.00 | 0.00 | 62 | 1015.2 |
| 20260901173537 | 77 | 19 | 0.0 | 0.0 | 0.00 | 0.00 | 0.00 | 65 | 1015.2 |
| 20260901172810 | 77 | 269 | 0.0 | 0.0 | 0.00 | 0.00 | 0.00 | 65 | 1015.1 |
| 20260901172305 | 76 | 233 | 0.0 | 0.0 | 0.00 | 0.00 | 0.00 | 66 | 1015.0 |
| 20260901171758 | 76 | 13 | 0.0 | 2.0 | 0.00 | 0.00 | 0.00 | 67 | 1015.1 |
| 20260901171252 | 75 | 319 | 0.0 | 2.0 | 0.00 | 0.00 | 0.00 | 68 | 1015.2 |
| 20260901171043 | 75 | 40 | 0.0 | 2.0 | 0.00 | 0.00 | 0.00 | 69 | 1015.2 |
| 20260901170239 | 75 | 0 | 0.0 | 2.0 | 0.00 | 0.00 | 0.00 | 69 | 1015.2 |
| 20260901165733 | 74 | 337 | 0.0 | 0.0 | 0.00 | 0.00 | 0.00 | 70 | 1015.2 |
| 20260901165229 | 74 | 313 | 0.0 | 2.0 | 0.00 | 0.00 | 0.00 | 71 | 1015.1 |
| 20260901164722 | 74 | 320 | 0.0 | 1.0 | 0.00 | 0.00 | 0.00 | 71 | 1014.9 |
| 20260901164215 | 73 | 13 | 0.0 | 2.0 | 0.00 | 0.00 | 0.00 | 72 | 1014.8 |
| 20260901163709 | 73 | 5 | 0.0 | 0.0 | 0.00 | 0.00 | 0.00 | 72 | 1015.0 |
| 20260901163204 | 73 | 346 | 0.0 | 0.0 | 0.00 | 0.00 | 0.00 | 72 | 1015.1 |
| 20260901162657 | 73 | 88 | 0.0 | 0.0 | 0.00 | 0.00 | 0.00 | 73 | 1014.9 |
| 20260901162152 | 73 | 251 | 0.0 | 1.0 | 0.00 | 0.00 | 0.00 | 73 | 1015.0 |
| 20260901161650 | 72 | 26 | 0.0 | 1.0 | 0.00 | 0.00 | 0.00 | 74 | 1015.0 |
| 20260901161139 | 72 | 9 | 0.0 | 0.0 | 0.00 | 0.00 | 0.00 | 74 | 1014.9 |
| 20260901160638 | 72 | 41 | 0.0 | 0.0 | 0.00 | 0.00 | 0.00 | 75 | 1014.8 |
| 20260901160128 | 71 | 12 | 0.0 | 0.0 | 0.00 | 0.00 | 0.00 | 76 | 1014.8 |
| 20260901155622 | 71 | 335 | 0.0 | 0.0 | 0.00 | 0.00 | 0.00 | 77 | 1014.7 |
| 20260901155115 | 70 | 315 | 0.0 | 0.0 | 0.00 | 0.00 | 0.00 | 79 | 1014.8 |
| 20260901154610 | 70 | 216 | 0.0 | 0.0 | 0.00 | 0.00 | 0.00 | 78 | 1014.6 |
| 20260901154104 | 70 | 286 | 0.0 | 0.0 | 0.00 | 0.00 | 0.00 | 77 | 1014.7 |
| 20260901153557 | 70 | 270 | 0.0 | 0.0 | 0.00 | 0.00 | 0.00 | 78 | 1014.6 |
| 20260901153052 | 70 | 313 | 0.0 | 0.0 | 0.00 | 0.00 | 0.00 | 78 | 1014.5 |
| 20260901152808 | 70 | 159 | 0.0 | 0.0 | 0.00 | 0.00 | 0.00 | 78 | 1014.4 |
| 20260901152039 | 70 | 254 | 0.0 | 0.0 | 0.00 | 0.00 | 0.00 | 78 | 1014.3 |
| 20260901151533 | 69 | 196 | 0.0 | 0.0 | 0.00 | 0.00 | 0.00 | 80 | 1014.3 |
| 20260901151028 | 68 | 178 | 0.0 | 0.0 | 0.00 | 0.00 | 0.00 | 82 | 1014.5 |
| 20260901150522 | 67 | 230 | 0.0 | 0.0 | 0.00 | 0.00 | 0.00 | 82 | 1014.5 |
| 20260901150247 | 67 | 182 | 0.0 | 0.0 | 0.00 | 0.00 | 0.00 | 83 | 1014.4 |
| 20260901145510 | 66 | 219 | 0.0 | 0.0 | 0.00 | 0.00 | 0.00 | 86 | 1014.5 |
| 20260901145004 | 65 | 227 | 0.0 | 0.0 | 0.00 | 0.00 | 0.00 | 88 | 1014.4 |
| 20260901144457 | 65 | 227 | 0.0 | 0.0 | 0.00 | 0.00 | 0.00 | 90 | 1014.5 |
| 20260901143951 | 65 | 225 | 0.0 | 0.0 | 0.00 | 0.00 | 0.00 | 91 | 1014.5 |
| 20260901143628 | 64 | 180 | 0.0 | 0.0 | 0.00 | 0.00 | 0.00 | 94 | 1014.4 |
| 20260901143522 | 65 | 225 | 0.0 | 0.0 | 0.00 | 0.00 | 0.00 | 92 | 1014.5 |
| 20260901143038 | 64 | 166 | 0.0 | 0.0 | 0.00 | 0.00 | 0.00 | 93 | 1014.4 |
| 20260901141927 | 64 | 196 | 0.0 | 0.0 | 0.00 | 0.00 | 0.00 | 95 | 1014.4 |
| 20260901141421 | 63 | 227 | 0.0 | 0.0 | 0.00 | 0.00 | 0.00 | 95 | 1014.6 |
| 20260901140916 | 63 | 226 | 0.0 | 0.0 | 0.00 | 0.00 | 0.00 | 95 | 1014.6 |
| 20260901140410 | 62 | 213 | 0.0 | 0.0 | 0.00 | 0.00 | 0.00 | 95 | 1014.5 |
| 20260901135903 | 62 | 197 | 0.0 | 0.0 | 0.00 | 0.00 | 0.00 | 95 | 1014.4 |
| 20260901135617 | 62 | 185 | 0.0 | 0.0 | 0.00 | 0.00 | 0.00 | 95 | 1014.3 |
| 20260901134851 | 62 | 184 | 0.0 | 0.0 | 0.00 | 0.00 | 0.00 | 95 | 1014.3 |
| 20260901134345 | 61 | 179 | 0.0 | 0.0 | 0.00 | 0.00 | 0.00 | 95 | 1014.1 |
| 20260901133839 | 61 | 187 | 0.0 | 0.0 | 0.00 | 0.00 | 0.00 | 95 | 1014.2 |
| 20260901133334 | 61 | 175 | 0.0 | 0.0 | 0.00 | 0.00 | 0.00 | 95 | 1014.2 |
| 20260901133049 | 61 | 188 | 0.0 | 0.0 | 0.00 | 0.00 | 0.00 | 94 | 1014.0 |
| 20260901132327 | 61 | 182 | 0.0 | 0.0 | 0.00 | 0.00 | 0.00 | 94 | 1013.9 |
| 20260901131826 | 61 | 181 | 0.0 | 0.0 | 0.00 | 0.00 | 0.00 | 95 | 1013.8 |
| 20260901131322 | 61 | 191 | 0.0 | 0.0 | 0.00 | 0.00 | 0.00 | 95 | 1013.9 |
| 20260901130823 | 61 | 160 | 0.0 | 0.0 | 0.00 | 0.00 | 0.00 | 95 | 1013.9 |
| 20260901130546 | 61 | 209 | 0.0 | 0.0 | 0.00 | 0.00 | 0.00 | 95 | 1013.6 |
| 20260901130049 | 61 | 182 | 0.0 | 0.0 | 0.00 | 0.00 | 0.00 | 95 | 1013.6 |
| 20260901125323 | 61 | 165 | 0.0 | 0.0 | 0.00 | 0.00 | 0.00 | 95 | 1013.6 |
| 20260901124822 | 61 | 189 | 0.0 | 0.0 | 0.00 | 0.00 | 0.00 | 96 | 1013.3 |
| 20260901124604 | 61 | 161 | 0.0 | 0.0 | 0.00 | 0.00 | 0.00 | 95 | 1013.2 |
| 20260901123818 | 60 | 169 | 0.0 | 0.0 | 0.00 | 0.00 | 0.00 | 95 | 1013.3 |
| 20260901123549 | 60 | 112 | 0.0 | 0.0 | 0.00 | 0.00 | 0.00 | 95 | 1013.3 |
| 20260901122816 | 60 | 112 | 0.0 | 0.0 | 0.00 | 0.00 | 0.00 | 94 | 1013.3 |
| 20260901122314 | 60 | 112 | 0.0 | 0.0 | 0.00 | 0.00 | 0.00 | 94 | 1013.2 |
| 20260901121813 | 61 | 95 | 0.0 | 0.0 | 0.00 | 0.00 | 0.00 | 94 | 1013.3 |
| 20260901121312 | 61 | 95 | 0.0 | 0.0 | 0.00 | 0.00 | 0.00 | 94 | 1013.3 |
| 20260901121035 | 61 | 95 | 0.0 | 0.0 | 0.00 | 0.00 | 0.00 | 94 | 1013.3 |
| 20260901120312 | 61 | 103 | 0.0 | 0.0 | 0.00 | 0.00 | 0.00 | 95 | 1013.3 |
| 20260901115811 | 62 | 96 | 0.0 | 0.0 | 0.00 | 0.00 | 0.00 | 94 | 1013.4 |
| 20260901115308 | 62 | 96 | 0.0 | 0.0 | 0.00 | 0.00 | 0.00 | 94 | 1013.4 |
| 20260901115026 | 62 | 84 | 0.0 | 0.0 | 0.00 | 0.00 | 0.00 | 94 | 1013.6 |
| 20260901114311 | 62 | 67 | 0.0 | 0.0 | 0.00 | 0.00 | 0.00 | 94 | 1013.7 |
| 20260901113811 | 62 | 67 | 0.0 | 0.0 | 0.00 | 0.00 | 0.00 | 94 | 1013.6 |
| 20260901113313 | 62 | 62 | 0.0 | 0.0 | 0.00 | 0.00 | 0.00 | 95 | 1013.7 |
| 20260901112813 | 62 | 25 | 0.0 | 0.0 | 0.00 | 0.00 | 0.00 | 95 | 1013.8 |
| 20260901112756 | 62 | 0 | 0.0 | 0.0 | 0.00 | 0.00 | 0.00 | 95 | 1013.8 |
| 20260901111808 | 62 | 329 | 0.0 | 0.0 | 0.00 | 0.00 | 0.00 | 95 | 1013.8 |
| 20260901111755 | 62 | 321 | 0.0 | 0.0 | 0.00 | 0.00 | 0.00 | 95 | 1013.8 |
| 20260901110805 | 62 | 321 | 0.0 | 0.0 | 0.00 | 0.00 | 0.00 | 95 | 1013.8 |
| 20260901110531 | 62 | 321 | 0.0 | 0.0 | 0.00 | 0.00 | 0.00 | 95 | 1013.8 |
| 20260901105805 | 62 | 321 | 0.0 | 0.0 | 0.00 | 0.00 | 0.00 | 95 | 1013.9 |
| 20260901105306 | 61 | 321 | 0.0 | 0.0 | 0.00 | 0.00 | 0.00 | 94 | 1013.9 |